Location: Clarion
(42.7316°N, 93.7330°W)
Time: 09:42:28
(UTC+00:00)

Cosmos 2322 Rocket - Pass Details

Date: 22 April 2026
Orbit: 832 x 849 km, 71.0° (Epoch: 17 May)

Event Time Altitude Azimuth Distance (km) Brightness Sun altitude
Rises 07:48:15 0° 342° (NNW) 3,394 5.9 -30.9°
Reaches altitude 10° 07:50:56 10° 352° (N) 2,459 5.2 -30.7°
Maximum altitude 07:56:01 33° 56° (NE) 1,372 3.7 -30.2°
Drops below altitude 10° 08:01:05 10° 120° (ESE) 2,457 4.6 -29.8°
Enters shadow 08:01:14 - 121° (ESE) 2,505 4.6 -29.7°
